Miscellaneous Local Product
Issued by NWS North Platte, NE

Home | Current Version | Previous Version | Text Only | Print | Product List | Glossary On
Versions: 1 2 3 4 5 6 7 8 9 10 11 12 13 14 15 16 17 18 19 20 21 22 23 24 25 26 27 28 29 30 31 32 33 34 35 36 37 38 39 40 41 42 43 44 45 46 47 48 49 50
000
AXUS43 KLBF 210510
MISLBF


WESTERN AND NORTH CENTRAL NEBRASKA HOURLY WEATHER ROUNDUP
NATIONAL WEATHER SERVICE NORTH PLATTE NE
1200 AM CDT TUE OCT 21 2014

***STATIONS NOT REPORTING VARIABLES SUCH AS SKY/WEATHER OR
PRESSURE ARE PROVIDED BY THE NEBRASKA DEPARTMENT OF
ROADS...RAWS...AND APRS NETWORKS...AND ARE NOT UNDER
NATIONAL WEATHER SERVICE QUALITY CONTROL***

...OBSERVATIONS IN AND NEAR THE EASTERN PANHANDLE OF NEBRASKA...

CITY           SKY/WX    TMP DP  RH WIND       PRES   REMARKS
PINE RIDGE     CLEAR     63  39  41 S15G25    29.94F
CHADRON        LGT RAIN  64  38  38 S17       29.92F
ALLIANCE       CLEAR     46  38  73 S10       30.01S
SIDNEY         CLEAR     51  40  65 S10       30.07S
WHITECLAY        N/A     63  38  39 S20         N/A
RUSHVILLE        N/A     58  30  34 SW17        N/A
CRESCENT LAKE    N/A     54  39  57 S6          N/A
LISCO            N/A     60  36  41 NE6         N/A
BIG SPRINGS      N/A     56  42  58 S7          N/A
LEWELLEN         N/A     62  34  35 S7          N/A
$$

...OBSERVATIONS IN NORTH CENTRAL NEBRASKA...

CITY           SKY/WX    TMP DP  RH WIND       PRES   REMARKS
VALENTINE      CLEAR     59  39  47 SW13      29.98F
THEDFORD       CLEAR     59  40  49 S9        30.03S
AINSWORTH      CLEAR     55  41  60 S12       30.01S
O`NEILL        CLEAR     52  42  70 S6        30.04S
ORD            CLEAR     43  38  82 CALM      30.04S
BROKEN BOW     CLEAR     42  38  85 CALM      30.05S
BROWNLEE         N/A     55  38  54 S10         N/A
SPRINGVIEW       N/A     55  42  62 CALM        N/A
BREWSTER         N/A     59  44  56 S10         N/A
ROSE             N/A     54  45  70 E8          N/A
NEWPORT          N/A     50  41  71 SE5         N/A
SARGENT          N/A     51  42  72 CALM        N/A
COMSTOCK         N/A     58  43  56 S10         N/A
CHAMBERS         N/A     48  37  67 S3          N/A
$$

...OBSERVATIONS IN SOUTHWEST NEBRASKA AND FAR NORTHEAST COLORADO...

CITY           SKY/WX    TMP DP  RH WIND       PRES   REMARKS
WRAY           FAIR      55  39  56 SW3       30.09S
HOLYOKE        FAIR      54  41  62 S7        30.08S
IMPERIAL       CLEAR     56  37  49 S10       30.07S
OGALLALA       CLEAR     55  40  57 W5        30.06S
NORTH PLATTE   CLEAR     55  39  54 S8        30.05S
MCCOOK         CLEAR     55  40  56 S7        30.06F
LEXINGTON      CLEAR     53  41  65 SE6       30.06F
PAXTON           N/A     56  41  56 S12         N/A
SUTHERLAND       N/A     56  38  50 S9          N/A
BRADY            N/A     53  40  62 CALM        N/A
GOTHENBURG       N/A     57  38  49 CALM        N/A
CALLAWAY         N/A     48  40  75 S7          N/A
$$

...SOME WEATHER OBSERVATIONS FROM AROUND THE REGION...

CITY           SKY/WX    TMP DP  RH WIND       PRES   REMARKS
DENVER         PTCLDY    59  38  45 S22       30.07F
LARAMIE        CLEAR     39  33  79 S7        30.15S WCI  34
CHEYENNE       CLEAR     45  34  65 W6        30.09F
SCOTTSBLUFF    CLEAR     62  38  40 SE8       30.00F
RAPID CITY     CLEAR     54  43  66 SE8       29.89F
PIERRE         CLEAR     57  37  47 SE14      29.92S
WINNER         FAIR      59  41  51 S13       29.95F
SIOUX FALLS    CLEAR     41  36  82 N3        30.06S
OMAHA          CLEAR     47  43  86 CALM      30.07F
GRAND ISLAND   CLEAR     52  39  61 S8        30.07S
KANSAS CITY    CLEAR     60  40  47 CALM      30.07S
WICHITA        CLEAR     56  47  71 CALM      30.07F
HAYS           CLEAR     52  43  71 CALM      30.09S
LIBERAL        CLEAR     59  52  77 E7        30.12F
GOODLAND       CLEAR     51  39  63 S12       30.11F
$$



USA.gov is the U.S. government's official web portal to all federal, state and local government web resources and services.